| time (UTC) | temp F | wind direction | speed MPH | gust MPH | rain 1hr in | rain 24hr in | rain mn in | humidity % | barometer mb |
| 20260504185107 | 70 | 281 | 4.0 | 11.0 | 0.00 | 0.00 | 0.00 | 40 | 1010.8 |
| 20260504184603 | 69 | 287 | 7.0 | 12.0 | 0.00 | 0.00 | 0.00 | 39 | 1010.8 |
| 20260504184058 | 69 | 292 | 4.0 | 7.0 | 0.00 | 0.00 | 0.00 | 40 | 1011.0 |
| 20260504183556 | 69 | 275 | 5.0 | 8.0 | 0.00 | 0.00 | 0.00 | 39 | 1011.0 |
| 20260504183054 | 69 | 261 | 6.0 | 10.0 | 0.00 | 0.00 | 0.00 | 40 | 1011.1 |
| 20260504182550 | 69 | 300 | 8.0 | 12.0 | 0.00 | 0.00 | 0.00 | 41 | 1011.0 |
| 20260504182048 | 69 | 270 | 7.0 | 11.0 | 0.00 | 0.00 | 0.00 | 40 | 1011.5 |
| 20260504181545 | 69 | 283 | 7.0 | 11.0 | 0.00 | 0.00 | 0.00 | 40 | 1011.2 |
| 20260504181043 | 68 | 306 | 7.0 | 11.0 | 0.00 | 0.00 | 0.00 | 40 | 1011.3 |
| 20260504180542 | 68 | 278 | 8.0 | 10.0 | 0.00 | 0.00 | 0.00 | 42 | 1011.3 |
| 20260504180040 | 69 | 255 | 4.0 | 11.0 | 0.00 | 0.00 | 0.00 | 41 | 1011.4 |
| 20260504175537 | 68 | 297 | 8.0 | 14.0 | 0.00 | 0.00 | 0.00 | 41 | 1011.4 |
| 20260504175034 | 69 | 261 | 6.0 | 8.0 | 0.00 | 0.00 | 0.00 | 41 | 1011.4 |
| 20260504174532 | 68 | 280 | 7.0 | 11.0 | 0.00 | 0.00 | 0.00 | 41 | 1011.5 |
| 20260504174028 | 68 | 265 | 5.0 | 8.0 | 0.00 | 0.00 | 0.00 | 40 | 1011.7 |
| 20260504173525 | 68 | 278 | 6.0 | 8.0 | 0.00 | 0.00 | 0.00 | 42 | 1011.7 |
| 20260504173023 | 68 | 275 | 6.0 | 8.0 | 0.00 | 0.00 | 0.00 | 41 | 1011.6 |
| 20260504172519 | 68 | 278 | 4.0 | 8.0 | 0.00 | 0.00 | 0.00 | 44 | 1011.9 |
| 20260504172015 | 67 | 263 | 7.0 | 8.0 | 0.00 | 0.00 | 0.00 | 40 | 1012.2 |
| 20260504171512 | 67 | 264 | 6.0 | 8.0 | 0.00 | 0.00 | 0.00 | 41 | 1012.2 |
| 20260504171009 | 66 | 263 | 6.0 | 11.0 | 0.00 | 0.00 | 0.00 | 42 | 1012.3 |
| 20260504170505 | 66 | 289 | 7.0 | 11.0 | 0.00 | 0.00 | 0.00 | 42 | 1012.5 |
| 20260504160425 | 64 | 283 | 6.0 | 8.0 | 0.00 | 0.00 | 0.00 | 41 | 1013.0 |
| 20260504150849 | 61 | 275 | 6.0 | 8.0 | 0.00 | 0.00 | 0.00 | 41 | 1013.5 |
| 20260504150345 | 62 | 266 | 8.0 | 10.0 | 0.00 | 0.00 | 0.00 | 43 | 1013.4 |
| 20260504141316 | 57 | 284 | 4.0 | 7.0 | 0.00 | 0.00 | 0.00 | 47 | 1013.9 |
| 20260504140812 | 57 | 270 | 6.0 | 8.0 | 0.00 | 0.00 | 0.00 | 48 | 1014.0 |
| 20260504140308 | 58 | 273 | 4.0 | 5.0 | 0.00 | 0.00 | 0.00 | 50 | 1013.8 |
| 20260504130737 | 55 | 293 | 6.0 | 8.0 | 0.00 | 0.00 | 0.00 | 47 | 1014.2 |
| 20260504130232 | 54 | 273 | 3.0 | 5.0 | 0.00 | 0.00 | 0.00 | 49 | 1014.2 |
| 20260504120156 | 52 | 283 | 4.0 | 4.0 | 0.00 | 0.00 | 0.00 | 51 | 1014.8 |
| 20260504110624 | 48 | 277 | 3.0 | 3.0 | 0.00 | 0.00 | 0.00 | 57 | 1014.3 |
| 20260504110120 | 48 | 276 | 3.0 | 4.0 | 0.00 | 0.00 | 0.00 | 57 | 1014.3 |
| 20260504100545 | 46 | 276 | 3.0 | 3.0 | 0.00 | 0.00 | 0.00 | 57 | 1014.0 |
| 20260504081939 | 48 | 290 | 5.0 | 5.0 | 0.00 | 0.00 | 0.00 | 55 | 1014.3 |
| 20260504081436 | 47 | 276 | 4.0 | 5.0 | 0.00 | 0.00 | 0.00 | 55 | 1014.3 |
| 20260504080932 | 48 | 272 | 4.0 | 5.0 | 0.00 | 0.00 | 0.00 | 55 | 1014.4 |
| 20260504080429 | 48 | 279 | 4.0 | 7.0 | 0.00 | 0.00 | 0.00 | 55 | 1014.4 |
| 20260504070356 | 49 | 278 | 4.0 | 7.0 | 0.00 | 0.00 | 0.00 | 52 | 1014.2 |
| 20260504050744 | 50 | 268 | 4.0 | 5.0 | 0.00 | 0.00 | 0.00 | 50 | 1014.2 |
| 20260504050241 | 50 | 277 | 5.0 | 7.0 | 0.00 | 0.00 | 0.00 | 51 | 1014.2 |
| 20260504045738 | 50 | 270 | 6.0 | 7.0 | 0.00 | 0.00 | 0.00 | 51 | 1014.3 |
| 20260504045233 | 50 | 269 | 5.0 | 5.0 | 0.00 | 0.00 | 0.00 | 51 | 1014.1 |
| 20260504044731 | 50 | 267 | 5.0 | 5.0 | 0.00 | 0.00 | 0.00 | 52 | 1014.1 |
| 20260504044229 | 50 | 272 | 4.0 | 5.0 | 0.00 | 0.00 | 0.00 | 51 | 1014.2 |
| 20260504043725 | 50 | 274 | 4.0 | 8.0 | 0.00 | 0.00 | 0.00 | 50 | 1014.1 |
| 20260504043222 | 50 | 276 | 5.0 | 5.0 | 0.00 | 0.00 | 0.00 | 50 | 1014.1 |
| 20260504042720 | 50 | 271 | 4.0 | 5.0 | 0.00 | 0.00 | 0.00 | 51 | 1014.1 |
| 20260504042216 | 50 | 276 | 4.0 | 5.0 | 0.00 | 0.00 | 0.00 | 50 | 1014.0 |
| 20260504041712 | 50 | 271 | 5.0 | 5.0 | 0.00 | 0.00 | 0.00 | 50 | 1014.1 |
| 20260504041208 | 50 | 275 | 4.0 | 4.0 | 0.00 | 0.00 | 0.00 | 51 | 1014.1 |
| 20260504040705 | 50 | 272 | 4.0 | 5.0 | 0.00 | 0.00 | 0.00 | 51 | 1014.1 |
| 20260504040202 | 50 | 274 | 4.0 | 5.0 | 0.00 | 0.00 | 0.00 | 51 | 1013.9 |
| 20260504035658 | 50 | 271 | 4.0 | 5.0 | 0.00 | 0.00 | 0.00 | 50 | 1014.0 |
| 20260504035156 | 50 | 266 | 5.0 | 5.0 | 0.00 | 0.00 | 0.00 | 50 | 1013.8 |
| 20260504034653 | 50 | 269 | 4.0 | 5.0 | 0.00 | 0.00 | 0.00 | 49 | 1013.7 |
| 20260504034150 | 50 | 265 | 5.0 | 5.0 | 0.00 | 0.00 | 0.00 | 50 | 1013.6 |
| 20260504033648 | 50 | 265 | 4.0 | 5.0 | 0.00 | 0.00 | 0.00 | 50 | 1013.5 |
| 20260504033145 | 51 | 266 | 4.0 | 7.0 | 0.00 | 0.00 | 0.00 | 48 | 1013.7 |
| 20260504032641 | 51 | 275 | 4.0 | 5.0 | 0.00 | 0.00 | 0.00 | 49 | 1013.7 |
| 20260504032139 | 51 | 264 | 5.0 | 7.0 | 0.00 | 0.00 | 0.00 | 48 | 1013.6 |
| 20260504031636 | 51 | 267 | 5.0 | 5.0 | 0.00 | 0.00 | 0.00 | 48 | 1013.5 |
| 20260504031132 | 51 | 261 | 6.0 | 7.0 | 0.00 | 0.00 | 0.00 | 47 | 1013.5 |
| 20260504030629 | 51 | 266 | 5.0 | 5.0 | 0.00 | 0.00 | 0.00 | 47 | 1013.5 |
| 20260504030125 | 51 | 265 | 5.0 | 7.0 | 0.00 | 0.00 | 0.00 | 47 | 1013.6 |
| 20260504025622 | 52 | 264 | 5.0 | 7.0 | 0.00 | 0.00 | 0.00 | 46 | 1013.7 |
| 20260504025119 | 52 | 266 | 6.0 | 7.0 | 0.00 | 0.00 | 0.00 | 47 | 1013.4 |
| 20260504024617 | 52 | 269 | 4.0 | 5.0 | 0.00 | 0.00 | 0.00 | 47 | 1013.5 |
| 20260504024113 | 52 | 268 | 4.0 | 5.0 | 0.00 | 0.00 | 0.00 | 46 | 1013.6 |
| 20260504023610 | 52 | 270 | 4.0 | 5.0 | 0.00 | 0.00 | 0.00 | 46 | 1013.5 |
| 20260504023105 | 52 | 265 | 5.0 | 5.0 | 0.00 | 0.00 | 0.00 | 47 | 1013.6 |
| 20260504022602 | 52 | 272 | 4.0 | 4.0 | 0.00 | 0.00 | 0.00 | 47 | 1013.7 |
| 20260504022058 | 52 | 275 | 4.0 | 4.0 | 0.00 | 0.00 | 0.00 | 46 | 1013.6 |
| 20260504021556 | 52 | 271 | 4.0 | 5.0 | 0.00 | 0.00 | 0.00 | 46 | 1013.5 |
| 20260504021053 | 53 | 278 | 5.0 | 5.0 | 0.00 | 0.00 | 0.00 | 45 | 1013.7 |
| 20260504020549 | 53 | 277 | 5.0 | 5.0 | 0.00 | 0.00 | 0.00 | 44 | 1013.6 |
| 20260504020046 | 53 | 268 | 5.0 | 7.0 | 0.00 | 0.00 | 0.00 | 44 | 1013.6 |
| 20260504015542 | 53 | 272 | 4.0 | 7.0 | 0.00 | 0.00 | 0.00 | 44 | 1013.7 |
| 20260504015038 | 53 | 264 | 6.0 | 7.0 | 0.00 | 0.00 | 0.00 | 44 | 1013.5 |
| 20260504014535 | 53 | 265 | 5.0 | 7.0 | 0.00 | 0.00 | 0.00 | 44 | 1013.6 |
| 20260504014032 | 53 | 262 | 6.0 | 7.0 | 0.00 | 0.00 | 0.00 | 43 | 1013.6 |
| 20260504013530 | 53 | 270 | 5.0 | 5.0 | 0.00 | 0.00 | 0.00 | 43 | 1013.5 |
| 20260504013026 | 53 | 263 | 5.0 | 7.0 | 0.00 | 0.00 | 0.00 | 44 | 1013.5 |
| 20260504012524 | 53 | 262 | 5.0 | 5.0 | 0.00 | 0.00 | 0.00 | 44 | 1013.5 |
| 20260504012021 | 53 | 267 | 4.0 | 5.0 | 0.00 | 0.00 | 0.00 | 44 | 1013.4 |
| 20260504011517 | 53 | 265 | 5.0 | 7.0 | 0.00 | 0.00 | 0.00 | 43 | 1013.5 |
| 20260504011013 | 53 | 264 | 4.0 | 5.0 | 0.00 | 0.00 | 0.00 | 43 | 1013.4 |
| 20260504010509 | 53 | 271 | 4.0 | 5.0 | 0.00 | 0.00 | 0.00 | 42 | 1013.4 |
| 20260504010005 | 53 | 276 | 3.0 | 4.0 | 0.00 | 0.00 | 0.00 | 42 | 1013.3 |
| 20260504005502 | 54 | 274 | 3.0 | 5.0 | 0.00 | 0.00 | 0.00 | 42 | 1013.4 |
| 20260504005000 | 54 | 281 | 4.0 | 4.0 | 0.00 | 0.00 | 0.00 | 42 | 1013.1 |
| 20260504004457 | 54 | 285 | 4.0 | 5.0 | 0.00 | 0.00 | 0.00 | 42 | 1013.3 |
| 20260504003954 | 54 | 283 | 4.0 | 5.0 | 0.00 | 0.00 | 0.00 | 41 | 1013.2 |
| 20260504003450 | 54 | 275 | 3.0 | 7.0 | 0.00 | 0.00 | 0.00 | 42 | 1013.0 |
| 20260504002947 | 54 | 278 | 4.0 | 5.0 | 0.00 | 0.00 | 0.00 | 42 | 1013.0 |
| 20260504002444 | 54 | 288 | 3.0 | 4.0 | 0.00 | 0.00 | 0.00 | 43 | 1012.9 |
| 20260504001942 | 54 | 276 | 3.0 | 4.0 | 0.00 | 0.00 | 0.00 | 42 | 1012.6 |
| 20260504001439 | 54 | 281 | 4.0 | 5.0 | 0.00 | 0.00 | 0.00 | 41 | 1012.6 |
| 20260504000935 | 54 | 286 | 4.0 | 4.0 | 0.00 | 0.00 | 0.00 | 42 | 1012.7 |
| 20260504000433 | 55 | 288 | 4.0 | 4.0 | 0.00 | 0.00 | 0.00 | 42 | 1012.8 |
| 20260503235930 | 55 | 283 | 4.0 | 5.0 | 0.00 | 0.00 | 0.00 | 41 | 1012.8 |
| 20260503235428 | 55 | 285 | 5.0 | 7.0 | 0.00 | 0.00 | 0.00 | 41 | 1012.6 |
| 20260503234925 | 56 | 276 | 5.0 | 7.0 | 0.00 | 0.00 | 0.00 | 39 | 1012.5 |
| 20260503234422 | 56 | 290 | 6.0 | 7.0 | 0.00 | 0.00 | 0.00 | 40 | 1012.6 |
| 20260503233920 | 56 | 289 | 5.0 | 7.0 | 0.00 | 0.00 | 0.00 | 39 | 1012.6 |
| 20260503233416 | 56 | 290 | 5.0 | 7.0 | 0.00 | 0.00 | 0.00 | 40 | 1012.5 |
| 20260503232913 | 56 | 290 | 5.0 | 7.0 | 0.00 | 0.00 | 0.00 | 40 | 1012.3 |
| 20260503232410 | 56 | 293 | 6.0 | 10.0 | 0.00 | 0.00 | 0.00 | 39 | 1012.3 |
| 20260503231908 | 57 | 288 | 7.0 | 11.0 | 0.00 | 0.00 | 0.00 | 39 | 1012.2 |
| 20260503231405 | 57 | 295 | 8.0 | 14.0 | 0.00 | 0.00 | 0.00 | 37 | 1012.2 |
| 20260503230901 | 57 | 287 | 9.0 | 12.0 | 0.00 | 0.00 | 0.00 | 37 | 1012.2 |
| 20260503230357 | 58 | 290 | 10.0 | 12.0 | 0.00 | 0.00 | 0.00 | 36 | 1012.2 |
| 20260503225855 | 57 | 302 | 6.0 | 11.0 | 0.00 | 0.00 | 0.00 | 37 | 1012.2 |
| 20260503225351 | 57 | 276 | 8.0 | 11.0 | 0.00 | 0.00 | 0.00 | 38 | 1012.2 |
| 20260503224848 | 58 | 299 | 8.0 | 12.0 | 0.00 | 0.00 | 0.00 | 37 | 1012.2 |
| 20260503224345 | 59 | 302 | 7.0 | 10.0 | 0.00 | 0.00 | 0.00 | 36 | 1012.1 |
| 20260503223843 | 58 | 305 | 9.0 | 11.0 | 0.00 | 0.00 | 0.00 | 34 | 1012.0 |
| 20260503223340 | 59 | 291 | 8.0 | 10.0 | 0.00 | 0.00 | 0.00 | 36 | 1012.0 |
| 20260503222835 | 58 | 295 | 8.0 | 10.0 | 0.00 | 0.00 | 0.00 | 36 | 1012.1 |
| 20260503222334 | 58 | 285 | 9.0 | 11.0 | 0.00 | 0.00 | 0.00 | 36 | 1012.2 |
| 20260503221832 | 58 | 305 | 7.0 | 10.0 | 0.00 | 0.00 | 0.00 | 36 | 1012.2 |
| 20260503221331 | 59 | 303 | 9.0 | 11.0 | 0.00 | 0.00 | 0.00 | 34 | 1012.1 |
| 20260503220826 | 59 | 291 | 10.0 | 11.0 | 0.00 | 0.00 | 0.00 | 35 | 1012.1 |
| 20260503220323 | 58 | 297 | 7.0 | 10.0 | 0.00 | 0.00 | 0.00 | 36 | 1012.3 |
| 20260503215814 | 59 | 288 | 11.0 | 12.0 | 0.00 | 0.00 | 0.00 | 36 | 1012.1 |
| 20260503215311 | 60 | 292 | 7.0 | 8.0 | 0.00 | 0.00 | 0.00 | 35 | 1012.2 |
| 20260503214809 | 60 | 294 | 7.0 | 8.0 | 0.00 | 0.00 | 0.00 | 35 | 1012.2 |
| 20260503214306 | 58 | 296 | 5.0 | 10.0 | 0.00 | 0.00 | 0.00 | 35 | 1012.1 |
| 20260503213803 | 58 | 297 | 7.0 | 10.0 | 0.00 | 0.00 | 0.00 | 36 | 1012.2 |
| 20260503213300 | 59 | 294 | 11.0 | 11.0 | 0.00 | 0.00 | 0.00 | 35 | 1012.0 |
| 20260503212757 | 59 | 292 | 11.0 | 12.0 | 0.00 | 0.00 | 0.00 | 34 | 1011.9 |
| 20260503212255 | 59 | 276 | 12.0 | 15.0 | 0.00 | 0.00 | 0.00 | 35 | 1011.9 |
| 20260503211752 | 58 | 295 | 9.0 | 11.0 | 0.00 | 0.00 | 0.00 | 35 | 1011.9 |
| 20260503211248 | 58 | 303 | 8.0 | 10.0 | 0.00 | 0.00 | 0.00 | 35 | 1012.1 |
| 20260503210744 | 59 | 312 | 11.0 | 15.0 | 0.00 | 0.00 | 0.00 | 35 | 1012.0 |
| 20260503210242 | 58 | 294 | 5.0 | 7.0 | 0.00 | 0.00 | 0.00 | 33 | 1011.9 |
| 20260503205742 | 59 | 297 | 6.0 | 11.0 | 0.00 | 0.00 | 0.00 | 33 | 1012.0 |
| 20260503205239 | 60 | 346 | 3.0 | 5.0 | 0.00 | 0.00 | 0.00 | 34 | 1011.9 |
| 20260503204735 | 58 | 335 | 3.0 | 5.0 | 0.00 | 0.00 | 0.00 | 38 | 1012.0 |
| 20260503204233 | 57 | 299 | 7.0 | 10.0 | 0.00 | 0.00 | 0.00 | 35 | 1012.1 |
| 20260503203730 | 59 | 346 | 3.0 | 10.0 | 0.00 | 0.00 | 0.00 | 33 | 1012.0 |
| 20260503203227 | 59 | 312 | 5.0 | 8.0 | 0.00 | 0.00 | 0.00 | 33 | 1012.1 |
| 20260503202724 | 58 | 351 | 8.0 | 10.0 | 0.00 | 0.00 | 0.00 | 34 | 1012.2 |
| 20260503202222 | 58 | 324 | 8.0 | 11.0 | 0.00 | 0.00 | 0.00 | 33 | 1012.2 |
| 20260503201720 | 59 | 288 | 10.0 | 11.0 | 0.00 | 0.00 | 0.00 | 34 | 1012.1 |
| 20260503201217 | 58 | 287 | 17.0 | 18.0 | 0.00 | 0.00 | 0.00 | 33 | 1012.2 |
| 20260503200713 | 57 | 326 | 6.0 | 12.0 | 0.00 | 0.00 | 0.00 | 33 | 1012.3 |
| 20260503200210 | 57 | 316 | 10.0 | 15.0 | 0.00 | 0.00 | 0.00 | 35 | 1012.2 |
| 20260503195707 | 59 | 314 | 8.0 | 16.0 | 0.00 | 0.00 | 0.00 | 33 | 1012.4 |
| 20260503195204 | 58 | 333 | 6.0 | 11.0 | 0.00 | 0.00 | 0.00 | 33 | 1012.5 |
| 20260503194701 | 58 | 353 | 6.0 | 10.0 | 0.00 | 0.00 | 0.00 | 33 | 1012.4 |
| 20260503194156 | 57 | 326 | 9.0 | 11.0 | 0.00 | 0.00 | 0.00 | 33 | 1012.7 |
| 20260503193653 | 56 | 326 | 4.0 | 8.0 | 0.00 | 0.00 | 0.00 | 35 | 1012.6 |
| 20260503193149 | 58 | 324 | 9.0 | 14.0 | 0.00 | 0.00 | 0.00 | 34 | 1012.8 |
| 20260503192645 | 57 | 294 | 14.0 | 16.0 | 0.00 | 0.00 | 0.00 | 34 | 1012.8 |
| 20260503192140 | 57 | 310 | 11.0 | 14.0 | 0.00 | 0.00 | 0.00 | 35 | 1012.8 |
| 20260503191637 | 57 | 301 | 4.0 | 7.0 | 0.00 | 0.00 | 0.00 | 37 | 1012.9 |
| 20260503191134 | 56 | 315 | 5.0 | 12.0 | 0.00 | 0.00 | 0.00 | 34 | 1013.0 |
| 20260503190631 | 56 | 311 | 10.0 | 12.0 | 0.00 | 0.00 | 0.00 | 35 | 1012.8 |
| 20260503190128 | 56 | 334 | 12.0 | 15.0 | 0.00 | 0.00 | 0.00 | 35 | 1013.0 |
| 20260503185625 | 56 | 351 | 7.0 | 16.0 | 0.00 | 0.00 | 0.00 | 37 | 1012.9 |